User: anonymous   Login
Location: Unspecified
(0.0000°N, 0.0000°E)
Time: 04:10:36
(UTC+00:00)
Language:

USA 93 - Orbit

View from above orbital plane
View from above orbital plane
View from above satellite
View from above satellite

Ground track
Ground track

The orbit data is extracted from the following two-line orbital elements,

1 22719U 93046A   17322.17079497 0.00000000  00000-0  00000-0 0    05
2 22719  11.0773  36.5744 0001925 259.1028 100.8876  0.99042212    04
Epoch (UTC): 18 November 2017 04:05:56
Eccentricity: 0.0001925
inclination: 11.0773°
perigee height: 36126 km
apogee height: 36142 km
right ascension of ascending node: 36.5744°
argument of perigee: 259.1028°
revolutions per day: 0.99042212
mean anomaly at epoch: 100.8876°
orbit number at epoch: 0

The dashed part of the orbit path shows where the satellite is in the earth's shadow,  

DLR